Regional Weather Roundup
Issued by NWS Northern Indiana

Home | Current Version | Previous Version | Graphics & Text | Print | Product List | Glossary On
Versions: 1 2 3 4 5 6 7 8 9 10 11 12 13 14 15 16 17 18 19 20 21 22 23 24 25 26 27 28 29 30 31 32 33 34 35 36 37 38 39 40 41 42 43 44 45 46 47 48 49 50
000
ASUS43 KIWX 240410
RWRIWX

KIWX WEATHER ROUNDUP
NATIONAL WEATHER SERVICE NORTHERN INDIANA
1200 AM EDT SUN JUL 24 2016

NOTE: "FAIR" INDICATES FEW OR NO CLOUDS BELOW 12,000 FEET WITH NO
SIGNIFICANT WEATHER AND/OR OBSTRUCTIONS TO VISIBILITY.

* THESE STATIONS ARE NOT UNDER NWS QUALITY CONTROL. THEY ALSO MAY NOT
  REPORT WEATHER SUCH AS PRECIPITATION OR FOG.

INZ001>027-240500-
NORTHERN INDIANA

CITY           SKY/WX    TMP DP  RH WIND       PRES   REMARKS
GARY*          CLOUDY    75  75 100 N15G40    30.05R
VALPARAISO     CLOUDY    75  69  81 S6        29.96S
MICHIGAN CITY* CLOUDY    72  72 100 CALM      29.94S
LAPORTE*       CLOUDY   N/A N/A N/A S3        29.96S
KNOX*          CLOUDY    73  68  83 S3        29.96S
SOUTH BEND     CLOUDY    75  73  93 SE5       29.96S
MONTICELLO*    PTCLDY    81  73  78 CALM      29.95F
LOGANSPORT*    CLOUDY    77  75  94 CALM      29.96F
ROCHESTER*     CLOUDY    82  79  89 SE3       29.96F
WARSAW*        CLOUDY    75  72  88 SE3       29.96F
ANGOLA*          N/A     75  68  78 CALM      29.98F
FORT WAYNE     CLOUDY    79  75  87 CALM      29.98F
HUNTINGTON*    CLOUDY   N/A N/A N/A S3        29.97F
PERU/GRISSOM   CLOUDY    79  77  95 S6        29.95F
MARION*        MOCLDY    74  72  93 CALM      29.99F

$$
INZ028>050-240500-
CENTRAL INDIANA

CITY           SKY/WX    TMP DP  RH WIND       PRES   REMARKS
LAFAYETTE      PTCLDY    78  77  96 CALM      29.95F
KOKOMO*        CLOUDY    75  70  83 S7        29.97F
MUNCIE*        CLOUDY    81  73  76 CALM      30.00F
INDIANAPOLIS   PTCLDY    83  72  69 SE3       30.00S

$$
MIZ043>046-050>051-056>058-064>065-071>073-077>080-240500-
SOUTHWEST LOWER MICHIGAN

CITY           SKY/WX    TMP DP  RH WIND       PRES   REMARKS
BATTLE CREEK   CLOUDY    78  66  66 CALM      29.97F
BENTON HARBOR  CLOUDY    76  73  91 NW8       29.96R
COLDWATER*     MOCLDY    75  73  93 SE6       29.96F
HOLLAND        CLOUDY    75  71  87 CALM      29.96R
GRAND RAPIDS   CLOUDY    79  71  76 S5        29.95F
KALAMAZOO      LGT RAIN  77  70  79 SE3       29.94F
STURGIS*       LGT RAIN  78  71  80 SW5       29.95F
THREE RIVERS*  LGT RAIN  77  73  86 SW3       29.95F

$$
OHZ001>008-015>018-024>025-240500-
NORTHWEST OHIO

CITY           SKY/WX    TMP DP  RH WIND       PRES   REMARKS
WAUSEON*       FAIR      75  72  88 CALM      29.98F
DEFIANCE       MOCLDY    78  71  79 CALM      29.97F
FINDLAY        CLOUDY    80  70  71 E5        29.99S
TOLEDO EXPRESS CLOUDY    75  73  93 CALM      29.97F
TOLEDO METCALF CLOUDY    80  68  66 CALM      29.98F
LIMA           PTCLDY    79  74  84 S6        30.01S

$$
AND FOR LAKE MICHIGAN COASTAL AND OPEN LAKE BUOY OBSERVATIONS

STATION/POSITION TEMP    WIND        PRES    VSBY  WAVE
                 AIR SEA DIR/SP/G                  HT/PER
                 (F)     (DEG/KT/KT) (MB)    (MI)  (FT/S)
CALUMET HARBOR    77                   N/A
MICHIGAN CITY     74     110/ 12/ 14   N/A
BURNS HARBOR      76     270/ 16/ 25 1015.9R
SAINT JOSEPH      78     330/  9/ 23 1015.9R
SOUTH LAKE BUOY   72 73  180/ 12/ 16 1013.7F         1/ 3
4 MI NW BRIDGMAN  77 77  310/ 12/ 23 1014.4R         2/ 2
MICHIGAN CITY     75 73  240/  6/ 16   N/A           2/ 5

$$
&&




USA.gov is the U.S. government's official web portal to all federal, state and local government web resources and services.